This is the latest recevied weather packets stored in our database for station/object VK3HAG. If no packets are shown the sender has not sent any weather packets the latest 10 day(s).
| Time | Temp. | Humidity | Pressure | Rain* | Wind** | Luminosity | Snow |
|---|---|---|---|---|---|---|---|
| 1778073304 | 8.33° C | 81% | 1016.9 hPa | 0 mm | - | - | - |
| 1778072404 | 8.89° C | 83% | 1017 hPa | 0 mm | - | - | - |
| 1778071504 | 8.89° C | 86% | 1016.8 hPa | 0 mm | - | - | - |
| 1778070604 | 8.89° C | 87% | 1016.6 hPa | 0 mm | - | - | - |
| 1778069704 | 8.89° C | 88% | 1016.5 hPa | 0 mm | - | - | - |
| 1778068804 | 8.89° C | 88% | 1016.4 hPa | 0 mm | - | - | - |
| 1778067905 | 9.44° C | 89% | 1016.3 hPa | 0 mm | - | - | - |
| 1778067004 | 9.44° C | 89% | 1016.3 hPa | 0.51 mm | - | - | - |
| 1778066105 | 9.44° C | 89% | 1016.4 hPa | 0.51 mm | - | - | - |
| 1778065204 | 9.44° C | 89% | 1016.2 hPa | 0.51 mm | - | - | - |
| 1778064304 | 10° C | 90% | 1016.1 hPa | 0.76 mm | - | - | - |
| 1778063404 | 11.11° C | 91% | 1015.5 hPa | 1.27 mm | - | - | - |
| 1778062504 | 11.11° C | 91% | 1015.4 hPa | 2.29 mm | - | - | - |
| 1778061604 | 11.67° C | 90% | 1015.1 hPa | 2.29 mm | - | - | - |
| 1778060704 | 11.67° C | 90% | 1014.9 hPa | 2.29 mm | - | - | - |
| 1778059805 | 12.78° C | 89% | 1015 hPa | 2.03 mm | - | - | - |
| 1778058904 | 12.78° C | 89% | 1013.9 hPa | 2.29 mm | - | - | - |
| 1778058005 | 12.78° C | 89% | 1014.1 hPa | 2.54 mm | - | - | - |
| 1778057105 | 13.33° C | 87% | 1014.2 hPa | 2.29 mm | - | - | - |
| 1778056204 | 13.89° C | 85% | 1014.1 hPa | 1.52 mm | - | - | - |
| 1778055305 | 13.89° C | 81% | 1013.4 hPa | 0.51 mm | - | - | - |
| 1778054404 | 15° C | 77% | 1013.3 hPa | 0 mm | - | - | - |
| 1778053504 | 15.56° C | 71% | 1013.2 hPa | 0 mm | - | - | - |
| 1778052604 | 15.56° C | 71% | 1013.1 hPa | 0 mm | - | - | - |
| 1778051705 | 15.56° C | 70% | 1013.1 hPa | 0 mm | - | - | - |
* Rain latest hour (hover to see other rain measurements)
** Current wind speed in m/s (hover to see current wind gust speed)